Skip Page Navigation
NASA JPL Caltech
NASA Logo - Jet Propulsion Laboratory + View the NASA Portal
+ Near-Earth Object (NEO) Program
Search JPL
JPL Home Earth Solar System Stars & Galaxies Technology
JPL Solar System Dynamics
BODIES ORBITS EPHEMERIDES TOOLS PHYSICAL DATA DISCOVERY FAQ SITE MAP
JPL Small-Body Database Browser
Search: [ help ]  
23295 Brandoreavis (2000 YK137)
Classification: Main-belt Asteroid          SPK-ID: 2023295
Ephemeris | Orbit Diagram | Orbital Elements | Physical Parameters | Discovery Circumstances ]

[ show orbit diagram ]
Orbital Elements at Epoch 2456400.5 (2013-Apr-18.0) TDB
Reference: MPO234954 (heliocentric ecliptic J2000)
 Element Value Uncertainty (1-sigma)   Units 
e 0.1075398 n/a  
a 2.3114936 n/a AU
q 2.0629160 n/a AU
i 8.97100 n/a deg
node 231.67003 n/a deg
peri 296.49655 n/a deg
M 151.26973 n/a deg
tp 2455861.1297525
(2011-Oct-26.62975250)
n/a JED
period 1283.6228973
3.51
n/a
n/a
d
yr
n 0.28045620 n/a deg/d
Q 2.5600712 n/a AU
  Orbit Determination Parameters
   # obs. used (total)      548  
   first obs. used      1991-??-??  
   last obs. used      2012-06-13  
   # oppositions      13  
   planetary ephem.      DE403  
   condition code      0  
   fit RMS      0.54  
   data source      MPC:mpn  
   producer      MPCLINUX  

Additional Information
 T_jup = 3.560 

Ephemeris | Orbit Diagram | Orbital Elements | Physical Parameters | Discovery Circumstances ]

Physical Parameter Table
Parameter Symbol Value Units Sigma Reference Notes
absolute magnitude H 15.4 mag n/a PDS3 (MPO 10267)  

23295 Brandoreavis           Discovered 2000 Dec. 23 by the Lincoln Laboratory Near-Earth Asteroid Research Team in Socorro.
Brandon Lee Reavis (b. 1989) was awarded first place in the 2007 Intel International Science and Engineering Fair for his electrical and mechanical engineering team project. He attends the Cody High School, Cody, Wyoming, U.S.A.
NOTE: some special characters may not display properly (any characters within {} are an attempt to place the proper accent above a character)
Reference: 20070828/MPCPages.arcLast Updated: 2007-08-30

Alternate Designations
 2000 YK137 = 1991 LK6 = 1999 SU25 
Ephemeris | Orbit Diagram | Orbital Elements | Physical Parameters | Discovery Circumstances ]
ABOUT SSD CREDITS/AWARDS PRIVACY/COPYRIGHT GLOSSARY LINKS
FirstGov 2013-May-23 22:43 UT
(server date/time)  
NASA Home Page
Site Manager:   Donald K. Yeomans
Webmaster  Alan B. Chamberlin